EW8668 Brignoles FR current weather conditions

sailwx.info

Wind from 240

Air temperature 8.3° C
Dewpoint 6.5° C

Last reported at 2019-Dec-08 23:38 UTC.
Time now 2019-Dec-09 00:27 UTC

Location: N 43°22' E 006°09'.
View on Google Maps.

See reports from other nearby stations

  
Tides and Currents Weather Stations Pressure Air Temp Water Temp Dewpoint Dewpoint Depression Visibility Wind Speed Wind Dir Waves Ship Positions
date/time (UTC)wind fromknots sea level pressurealtimeterstation pressurevisibilityair tempwater tempwave heightnotes
2019-Dec-08 23:38 240 8.3
2019-Dec-08 23:08 190 6.7
2019-Dec-08 22:38 250 5.6
2019-Dec-08 22:08 250 5.0
2019-Dec-08 21:38 250 5.0
2019-Dec-08 21:08 250 6.1
2019-Dec-08 20:38 250 6.7
2019-Dec-08 20:08 240 7.2
2019-Dec-08 19:38 150 0 gusting 1 6.7
2019-Dec-08 19:08 150 6.7
2019-Dec-08 18:38 210 6.7
2019-Dec-08 18:08 190 4 gusting 5 7.2
2019-Dec-08 17:38 200 6.1
2019-Dec-08 17:08 240 6.1
2019-Dec-08 16:38 240 7.2
2019-Dec-08 16:08 240 9.4
2019-Dec-08 15:38 230 10.6
2019-Dec-08 15:08 250 2 gusting 2 11.7
2019-Dec-08 14:38 220 4 gusting 5 12.2
2019-Dec-08 14:08 260 5 gusting 5 12.2
2019-Dec-08 13:38 240 4 gusting 4 12.2
2019-Dec-08 13:08 260 4 gusting 4 12.2
2019-Dec-08 12:38 210 11.7
2019-Dec-08 12:08 020 10.6
2019-Dec-08 11:38 320 10.0
2019-Dec-08 11:08 280 8.9
2019-Dec-08 10:38 270 7.8
2019-Dec-08 10:08 270 6.7
2019-Dec-08 09:38 210 5.0
2019-Dec-08 09:08 210 3.3
2019-Dec-08 08:38 210 1.7
2019-Dec-08 08:08 210 0.6
2019-Dec-08 07:38 210 -0.0
2019-Dec-08 07:08 210 -0.0
2019-Dec-08 06:38 210 -0.0
2019-Dec-08 06:08 210 -0.0
2019-Dec-08 05:38 210 0.6
2019-Dec-08 05:08 210 0.6
2019-Dec-08 04:38 210 0.6
2019-Dec-08 04:08 210 0.6
2019-Dec-08 03:38 210 1.1
2019-Dec-08 03:08 210 1.1
2019-Dec-08 02:38 210 1.7
2019-Dec-08 02:08 210 1.7
2019-Dec-08 01:38 210 2.2
2019-Dec-08 01:08 210 2.2
2019-Dec-08 00:38 220 2.8
2019-Dec-08 00:08 220 2.8
2019-Dec-07 23:38 220 2.8
2019-Dec-07 23:08 180 3.3
2019-Dec-07 22:38 180 3.9
2019-Dec-07 22:08 180 4.4
2019-Dec-07 21:38 180 4.4
2019-Dec-07 21:08 200 5.0
2019-Dec-07 20:38 140 5.0
2019-Dec-07 20:08 140 5.6
2019-Dec-07 19:38 130 5.6
2019-Dec-07 19:08 240 5.6
2019-Dec-07 18:38 080 6.1
2019-Dec-07 18:08 020 6.1
2019-Dec-07 17:38 6.7
2019-Dec-07 17:08 7.2
2019-Dec-07 16:38 150 8.3
2019-Dec-07 16:08 240 10.0
2019-Dec-07 15:38 210 11.7
2019-Dec-07 15:08 230 12.8
2019-Dec-07 14:38 250 2 gusting 5 13.3
2019-Dec-07 14:08 210 1 gusting 2 13.3
2019-Dec-07 13:38 260 4 gusting 4 13.9
2019-Dec-07 13:08 290 1 gusting 2 13.9
2019-Dec-07 12:38 340 4 gusting 4 13.3
2019-Dec-07 12:08 300 4 gusting 4 13.3
2019-Dec-07 11:38 290 2 gusting 5 12.8
2019-Dec-07 11:08 340 4 gusting 5 11.7
2019-Dec-07 10:38 350 1 gusting 1 10.0
2019-Dec-07 10:08 8.9
2019-Dec-07 09:38 100 7.8
2019-Dec-07 09:08 210 6.1
2019-Dec-07 08:38 220 4.4
2019-Dec-07 08:08 220 3.3
2019-Dec-07 07:38 110 2.2
2019-Dec-07 07:08 110 2.2
2019-Dec-07 06:38 110 2.2
2019-Dec-07 06:08 090 2.2
2019-Dec-07 05:38 130 2.2
2019-Dec-07 05:08 130 2.2
2019-Dec-07 04:38 250 2.2
2019-Dec-07 04:08 250 2.2
2019-Dec-07 03:38 250 2.2
2019-Dec-07 03:08 250 2.2
2019-Dec-07 02:38 250 2.2
2019-Dec-07 02:08 250 2.2
2019-Dec-07 01:38 250 2.8
2019-Dec-07 01:08 250 2.8
2019-Dec-07 00:38 250 2.8
2019-Dec-07 00:08 250 2.8